Time,TemperatureF,DewpointF,PressureIn,WindDirection,WindDirectionDegrees,WindSpeedMPH,WindSpeedGustMPH,Humidity,HourlyPrecipIn,Conditions,Clouds,dailyrainin,SoftwareType,DateUTC
2013-06-29 00:01:00,63.4,61.0,29.53,WNW,284,2.0,2.0,92,0.00,,,0.00,Wunderground v.1.15,2013-06-29 04:01:00,
2013-06-29 00:06:00,63.3,60.9,29.53,WNW,284,2.0,2.0,92,0.00,,,0.00,Wunderground v.1.15,2013-06-29 04:06:00,
2013-06-29 00:16:00,63.2,60.8,29.53,WNW,284,1.0,1.0,92,0.00,,,0.00,Wunderground v.1.15,2013-06-29 04:16:00,
2013-06-29 00:21:00,63.1,60.7,29.53,WNW,284,1.0,1.0,92,0.00,,,0.00,Wunderground v.1.15,2013-06-29 04:21:00,
2013-06-29 00:26:00,63.0,60.6,29.53,WNW,284,0.0,0.0,92,0.00,,,0.00,Wunderground v.1.15,2013-06-29 04:26:00,
2013-06-29 00:31:00,62.9,60.5,29.53,WNW,284,0.0,0.0,92,0.00,,,0.00,Wunderground v.1.15,2013-06-29 04:31:00,
2013-06-29 00:41:00,62.7,60.3,29.52,WNW,284,0.0,0.0,92,0.00,,,0.00,Wunderground v.1.15,2013-06-29 04:41:00,
2013-06-29 00:51:00,62.5,60.4,29.52,WNW,283,1.0,2.0,93,0.00,,,0.00,Wunderground v.1.15,2013-06-29 04:51:00,
2013-06-29 00:57:00,62.4,60.3,29.52,WNW,283,1.0,1.0,93,0.00,,,0.00,Wunderground v.1.15,2013-06-29 04:57:00,
2013-06-29 01:06:00,62.2,59.8,29.52,WNW,283,1.0,1.0,92,0.00,,,0.00,Wunderground v.1.15,2013-06-29 05:06:00,
2013-06-29 01:16:00,62.1,60.1,29.52,WNW,282,2.0,2.0,93,0.00,,,0.00,Wunderground v.1.15,2013-06-29 05:16:00,
2013-06-29 01:21:00,62.1,60.1,29.52,West,265,2.0,4.0,93,0.00,,,0.00,Wunderground v.1.15,2013-06-29 05:21:00,
2013-06-29 01:31:00,62.2,60.2,29.52,WSW,247,3.0,4.0,93,0.00,,,0.00,Wunderground v.1.15,2013-06-29 05:31:00,
2013-06-29 01:36:00,62.3,60.2,29.52,WSW,241,3.0,3.0,93,0.00,,,0.00,Wunderground v.1.15,2013-06-29 05:36:00,
2013-06-29 01:46:00,62.1,60.1,29.52,WSW,239,2.0,2.0,93,0.00,,,0.00,Wunderground v.1.15,2013-06-29 05:46:00,
2013-06-29 01:57:00,61.9,59.9,29.52,SW,236,2.0,2.0,93,0.00,,,0.00,Wunderground v.1.15,2013-06-29 05:57:00,
2013-06-29 02:06:00,61.8,59.8,29.52,WSW,238,2.0,2.0,93,0.00,,,0.00,Wunderground v.1.15,2013-06-29 06:06:00,
2013-06-29 02:11:00,61.8,59.8,29.52,SW,236,2.0,2.0,93,0.00,,,0.00,Wunderground v.1.15,2013-06-29 06:11:00,
2013-06-29 02:21:00,61.7,59.7,29.52,SW,236,1.0,2.0,93,0.00,,,0.00,Wunderground v.1.15,2013-06-29 06:21:00,
2013-06-29 02:26:00,61.7,59.7,29.52,SW,236,1.0,2.0,93,0.00,,,0.00,Wunderground v.1.15,2013-06-29 06:26:00,
2013-06-29 02:36:00,62.0,60.0,29.52,WSW,258,2.0,3.0,93,0.00,,,0.00,Wunderground v.1.15,2013-06-29 06:36:00,
2013-06-29 02:41:00,62.2,60.2,29.51,West,261,3.0,3.0,93,0.00,,,0.00,Wunderground v.1.15,2013-06-29 06:41:00,
2013-06-29 02:51:00,62.1,60.1,29.51,WNW,282,2.0,2.0,93,0.00,,,0.00,Wunderground v.1.15,2013-06-29 06:51:00,
2013-06-29 02:57:00,62.2,60.2,29.51,West,281,2.0,2.0,93,0.00,,,0.00,Wunderground v.1.15,2013-06-29 06:57:00,
2013-06-29 03:06:00,62.1,60.1,29.51,West,281,1.0,1.0,93,0.00,,,0.00,Wunderground v.1.15,2013-06-29 07:06:00,
2013-06-29 03:16:00,62.0,60.0,29.51,WNW,283,0.0,0.0,93,0.00,,,0.00,Wunderground v.1.15,2013-06-29 07:16:00,
2013-06-29 03:21:00,61.9,59.9,29.51,WNW,283,1.0,2.0,93,0.00,,,0.00,Wunderground v.1.15,2013-06-29 07:21:00,
2013-06-29 03:31:00,61.7,59.7,29.51,WNW,283,1.0,2.0,93,0.00,,,0.00,Wunderground v.1.15,2013-06-29 07:31:00,
2013-06-29 03:41:00,61.6,59.6,29.51,WNW,283,0.0,1.0,93,0.00,,,0.00,Wunderground v.1.15,2013-06-29 07:41:00,
2013-06-29 03:51:00,61.4,59.4,29.51,WNW,283,1.0,1.0,93,0.00,,,0.00,Wunderground v.1.15,2013-06-29 07:51:00,
2013-06-29 03:57:00,61.4,59.4,29.51,WNW,283,1.0,2.0,93,0.00,,,0.00,Wunderground v.1.15,2013-06-29 07:57:00,
2013-06-29 04:06:00,61.3,59.3,29.51,WNW,284,1.0,1.0,93,0.00,,,0.00,Wunderground v.1.15,2013-06-29 08:06:00,
2013-06-29 04:16:00,61.3,59.3,29.51,WNW,284,1.0,1.0,93,0.00,,,0.00,Wunderground v.1.15,2013-06-29 08:16:00,
2013-06-29 04:26:00,61.3,59.3,29.51,WNW,284,0.0,1.0,93,0.00,,,0.00,Wunderground v.1.15,2013-06-29 08:26:00,
2013-06-29 04:31:00,61.2,59.2,29.51,WNW,284,0.0,1.0,93,0.00,,,0.00,Wunderground v.1.15,2013-06-29 08:31:00,
2013-06-29 04:41:00,61.1,59.1,29.51,WNW,284,0.0,0.0,93,0.00,,,0.00,Wunderground v.1.15,2013-06-29 08:41:00,
2013-06-29 04:51:00,61.0,59.0,29.51,WNW,284,0.0,0.0,93,0.00,,,0.01,Wunderground v.1.15,2013-06-29 08:51:00,
2013-06-29 04:57:00,61.0,59.0,29.52,WNW,284,0.0,0.0,93,0.00,,,0.01,Wunderground v.1.15,2013-06-29 08:57:00,
2013-06-29 05:06:00,60.9,58.9,29.52,WNW,284,0.0,0.0,93,0.00,,,0.01,Wunderground v.1.15,2013-06-29 09:06:00,
2013-06-29 05:11:00,60.8,58.8,29.52,WNW,284,0.0,0.0,93,0.00,,,0.01,Wunderground v.1.15,2013-06-29 09:11:00,
2013-06-29 05:21:00,60.7,59.0,29.52,WNW,284,0.0,1.0,94,0.00,,,0.01,Wunderground v.1.15,2013-06-29 09:21:00,
2013-06-29 05:31:00,60.4,58.4,29.52,WNW,284,1.0,1.0,93,0.00,,,0.01,Wunderground v.1.15,2013-06-29 09:31:00,
2013-06-29 05:41:00,60.3,58.3,29.53,WNW,284,0.0,1.0,93,0.00,,,0.01,Wunderground v.1.15,2013-06-29 09:41:00,
2013-06-29 05:46:00,60.3,58.3,29.53,WNW,284,0.0,0.0,93,0.00,,,0.01,Wunderground v.1.15,2013-06-29 09:46:00,
2013-06-29 05:57:00,60.2,58.2,29.53,WNW,284,0.0,1.0,93,0.00,,,0.01,Wunderground v.1.15,2013-06-29 09:57:00,
2013-06-29 06:06:00,60.0,58.3,29.53,WNW,284,1.0,1.0,94,0.00,,,0.01,Wunderground v.1.15,2013-06-29 10:06:00,
2013-06-29 06:16:00,60.3,58.6,29.53,WNW,284,1.0,1.0,94,0.00,,,0.01,Wunderground v.1.15,2013-06-29 10:16:00,
2013-06-29 06:26:00,60.4,58.7,29.53,WNW,284,0.0,0.0,94,0.00,,,0.01,Wunderground v.1.15,2013-06-29 10:26:00,
2013-06-29 06:36:00,60.5,58.8,29.53,WNW,284,0.0,0.0,94,0.00,,,0.01,Wunderground v.1.15,2013-06-29 10:36:00,
2013-06-29 06:41:00,60.4,58.7,29.53,WNW,284,0.0,0.0,94,0.00,,,0.01,Wunderground v.1.15,2013-06-29 10:41:00,
2013-06-29 06:51:00,60.8,59.1,29.54,WNW,284,0.0,0.0,94,0.00,,,0.01,Wunderground v.1.15,2013-06-29 10:51:00,
2013-06-29 06:56:00,61.1,59.4,29.54,WNW,284,0.0,0.0,94,0.00,,,0.01,Wunderground v.1.15,2013-06-29 10:56:00,
2013-06-29 07:06:00,62.0,60.3,29.54,NW,304,1.0,1.0,94,0.00,,,0.01,Wunderground v.1.15,2013-06-29 11:06:00,
2013-06-29 07:16:00,62.7,60.9,29.54,WNW,302,1.0,2.0,94,0.00,,,0.01,Wunderground v.1.15,2013-06-29 11:16:00,
2013-06-29 07:26:00,63.3,61.5,29.54,NW,316,2.0,4.0,94,0.00,,,0.01,Wunderground v.1.15,2013-06-29 11:26:00,
2013-06-29 07:36:00,63.7,61.9,29.54,NW,326,3.0,3.0,94,0.00,,,0.01,Wunderground v.1.15,2013-06-29 11:36:00,
2013-06-29 07:46:00,64.1,62.3,29.54,NW,308,3.0,3.0,94,0.00,,,0.01,Wunderground v.1.15,2013-06-29 11:46:00,
2013-06-29 07:57:00,64.5,62.7,29.54,NNW,332,4.0,4.0,94,0.00,,,0.01,Wunderground v.1.15,2013-06-29 11:57:00,
2013-06-29 08:06:00,65.3,63.5,29.54,NNW,339,4.0,4.0,94,0.00,,,0.01,Wunderground v.1.15,2013-06-29 12:06:00,
2013-06-29 08:16:00,65.6,63.8,29.54,NNW,344,4.0,4.0,94,0.00,,,0.01,Wunderground v.1.15,2013-06-29 12:16:00,
2013-06-29 08:26:00,66.2,64.4,29.54,North,9,4.0,4.0,94,0.00,,,0.01,Wunderground v.1.15,2013-06-29 12:26:00,
2013-06-29 08:36:00,66.6,64.8,29.55,NNE,22,3.0,3.0,94,0.00,,,0.01,Wunderground v.1.15,2013-06-29 12:36:00,
2013-06-29 08:41:00,66.9,65.1,29.55,North,5,2.0,3.0,94,0.00,,,0.01,Wunderground v.1.15,2013-06-29 12:41:00,
2013-06-29 08:51:00,67.5,65.7,29.55,North,10,3.0,4.0,94,0.00,,,0.01,Wunderground v.1.15,2013-06-29 12:51:00,
2013-06-29 08:57:00,67.5,65.4,29.55,NNE,31,3.0,3.0,93,0.00,,,0.01,Wunderground v.1.15,2013-06-29 12:57:00,
2013-06-29 09:06:00,67.6,65.2,29.55,NW,320,3.0,3.0,92,0.00,,,0.01,Wunderground v.1.15,2013-06-29 13:06:00,
2013-06-29 09:16:00,67.5,64.8,29.55,NNW,336,4.0,4.0,91,0.00,,,0.01,Wunderground v.1.15,2013-06-29 13:16:00,
2013-06-29 09:26:00,67.7,64.7,29.56,North,350,5.0,5.0,90,0.00,,,0.01,Wunderground v.1.15,2013-06-29 13:26:00,
2013-06-29 09:31:00,67.6,64.6,29.56,North,350,5.0,5.0,90,0.00,,,0.01,Wunderground v.1.15,2013-06-29 13:31:00,
2013-06-29 09:41:00,67.7,64.3,29.56,North,360,5.0,5.0,89,0.00,,,0.01,Wunderground v.1.15,2013-06-29 13:41:00,
2013-06-29 09:46:00,67.8,64.4,29.56,NNW,334,5.0,5.0,89,0.00,,,0.01,Wunderground v.1.15,2013-06-29 13:46:00,
2013-06-29 09:57:00,67.7,64.3,29.56,NNW,340,5.0,5.0,89,0.00,,,0.01,Wunderground v.1.15,2013-06-29 13:57:00,
2013-06-29 10:06:00,67.7,64.3,29.56,NW,317,4.0,4.0,89,0.00,,,0.01,Wunderground v.1.15,2013-06-29 14:06:00,
2013-06-29 10:16:00,68.2,65.2,29.56,WNW,302,3.0,4.0,90,0.00,,,0.01,Wunderground v.1.15,2013-06-29 14:16:00,
2013-06-29 10:26:00,68.8,65.1,29.56,NNW,333,3.0,4.0,88,0.00,,,0.01,Wunderground v.1.15,2013-06-29 14:26:00,
2013-06-29 10:36:00,69.8,64.7,29.56,NNW,337,2.0,4.0,84,0.00,,,0.01,Wunderground v.1.15,2013-06-29 14:36:00,
2013-06-29 10:46:00,70.4,64.6,29.56,NNW,338,2.0,6.0,82,0.00,,,0.01,Wunderground v.1.15,2013-06-29 14:46:00,
2013-06-29 10:51:00,70.5,64.4,29.56,NNW,335,3.0,6.0,81,0.00,,,0.01,Wunderground v.1.15,2013-06-29 14:51:00,
2013-06-29 10:57:00,70.5,64.7,29.56,NNW,336,3.0,4.0,82,0.00,,,0.01,Wunderground v.1.15,2013-06-29 14:57:00,
2013-06-29 11:06:00,70.9,64.8,29.56,NE,39,3.0,3.0,81,0.00,,,0.01,Wunderground v.1.15,2013-06-29 15:06:00,
2013-06-29 11:11:00,71.0,65.2,29.56,North,355,3.0,3.0,82,0.00,,,0.01,Wunderground v.1.15,2013-06-29 15:11:00,
2013-06-29 11:21:00,71.4,65.3,29.56,North,11,3.0,3.0,81,0.00,,,0.01,Wunderground v.1.15,2013-06-29 15:21:00,
2013-06-29 11:26:00,71.6,65.5,29.56,North,349,3.0,3.0,81,0.00,,,0.01,Wunderground v.1.15,2013-06-29 15:26:00,
2013-06-29 11:36:00,72.1,65.9,29.56,East,82,2.0,2.0,81,0.00,,,0.01,Wunderground v.1.15,2013-06-29 15:36:00,
2013-06-29 11:41:00,72.3,65.1,29.56,North,351,2.0,2.0,78,0.00,,,0.01,Wunderground v.1.15,2013-06-29 15:41:00,
2013-06-29 11:51:00,72.5,65.6,29.56,NNW,328,3.0,3.0,79,0.00,,,0.01,Wunderground v.1.15,2013-06-29 15:51:00,
2013-06-29 11:57:00,72.5,65.2,29.56,NE,41,2.0,3.0,78,0.00,,,0.01,Wunderground v.1.15,2013-06-29 15:57:00,
2013-06-29 12:06:00,72.6,65.3,29.56,NNW,336,2.0,4.0,78,0.00,,,0.01,Wunderground v.1.15,2013-06-29 16:06:00,
2013-06-29 12:16:00,72.7,65.8,29.56,NNE,22,3.0,3.0,79,0.00,,,0.01,Wunderground v.1.15,2013-06-29 16:16:00,
2013-06-29 12:26:00,73.2,65.9,29.56,West,271,2.0,3.0,78,0.00,,,0.01,Wunderground v.1.15,2013-06-29 16:26:00,
2013-06-29 12:31:00,73.1,65.5,29.56,WNW,287,2.0,3.0,77,0.00,,,0.01,Wunderground v.1.15,2013-06-29 16:31:00,
2013-06-29 12:41:00,73.1,65.1,29.56,WNW,299,3.0,5.0,76,0.00,,,0.01,Wunderground v.1.15,2013-06-29 16:41:00,
2013-06-29 12:46:00,73.1,65.1,29.56,NW,310,2.0,2.0,76,0.00,,,0.01,Wunderground v.1.15,2013-06-29 16:46:00,
2013-06-29 12:57:00,73.2,64.8,29.56,East,91,3.0,3.0,75,0.00,,,0.01,Wunderground v.1.15,2013-06-29 16:57:00,
2013-06-29 13:06:00,72.7,65.1,29.56,ESE,103,3.0,3.0,77,0.00,,,0.01,Wunderground v.1.15,2013-06-29 17:06:00,
2013-06-29 13:16:00,72.3,65.1,29.56,ENE,60,2.0,3.0,78,0.00,,,0.01,Wunderground v.1.15,2013-06-29 17:16:00,
2013-06-29 13:26:00,72.0,65.5,29.56,ENE,73,5.0,5.0,80,0.00,,,0.01,Wunderground v.1.15,2013-06-29 17:26:00,
2013-06-29 13:36:00,72.0,65.1,29.56,East,93,6.0,6.0,79,0.00,,,0.01,Wunderground v.1.15,2013-06-29 17:36:00,
2013-06-29 13:41:00,72.4,65.9,29.55,ESE,102,6.0,6.0,80,0.00,,,0.01,Wunderground v.1.15,2013-06-29 17:41:00,
2013-06-29 13:51:00,72.9,66.4,29.56,ENE,63,7.0,11.0,80,0.00,,,0.01,Wunderground v.1.15,2013-06-29 17:51:00,
2013-06-29 13:57:00,72.8,65.5,29.56,NE,38,8.0,8.0,78,0.00,,,0.01,Wunderground v.1.15,2013-06-29 17:57:00,
2013-06-29 14:06:00,71.9,65.8,29.56,ENE,61,8.0,10.0,81,0.00,,,0.01,Wunderground v.1.15,2013-06-29 18:06:00,
2013-06-29 14:16:00,71.1,65.0,29.57,ENE,76,8.0,8.0,81,0.00,,,0.01,Wunderground v.1.15,2013-06-29 18:16:00,
2013-06-29 14:26:00,70.8,64.7,29.56,NE,53,8.0,9.0,81,0.00,,,0.01,Wunderground v.1.15,2013-06-29 18:26:00,
2013-06-29 14:36:00,71.3,65.2,29.56,ENE,71,8.0,8.0,81,0.00,,,0.01,Wunderground v.1.15,2013-06-29 18:36:00,
2013-06-29 14:46:00,71.7,64.8,29.57,NE,45,7.0,7.0,79,0.00,,,0.01,Wunderground v.1.15,2013-06-29 18:46:00,
2013-06-29 14:57:00,71.8,65.7,29.57,NNE,33,6.0,6.0,81,0.00,,,0.01,Wunderground v.1.15,2013-06-29 18:57:00,
2013-06-29 15:06:00,71.7,64.8,29.57,NE,55,7.0,8.0,79,0.00,,,0.01,Wunderground v.1.15,2013-06-29 19:06:00,
2013-06-29 15:16:00,71.7,64.8,29.57,ENE,68,7.0,8.0,79,0.00,,,0.01,Wunderground v.1.15,2013-06-29 19:16:00,
2013-06-29 15:26:00,72.0,65.5,29.57,ENE,62,6.0,9.0,80,0.00,,,0.01,Wunderground v.1.15,2013-06-29 19:26:00,
2013-06-29 15:36:00,72.3,65.4,29.58,ENE,75,7.0,8.0,79,0.00,,,0.01,Wunderground v.1.15,2013-06-29 19:36:00,
2013-06-29 15:46:00,72.5,65.6,29.58,NE,54,7.0,8.0,79,0.00,,,0.01,Wunderground v.1.15,2013-06-29 19:46:00,
2013-06-29 15:56:00,72.4,65.5,29.59,East,88,5.0,6.0,79,0.00,,,0.01,Wunderground v.1.15,2013-06-29 19:56:00,
2013-06-29 16:06:00,71.6,63.6,29.59,ENE,76,4.0,4.0,76,0.00,,,0.01,Wunderground v.1.15,2013-06-29 20:06:00,
2013-06-29 16:11:00,71.4,63.8,29.58,East,85,5.0,6.0,77,0.00,,,0.01,Wunderground v.1.15,2013-06-29 20:11:00,
2013-06-29 16:21:00,71.6,64.7,29.58,ENE,69,5.0,7.0,79,0.00,,,0.01,Wunderground v.1.15,2013-06-29 20:21:00,
2013-06-29 16:26:00,71.7,64.8,29.58,ENE,77,5.0,5.0,79,0.00,,,0.01,Wunderground v.1.15,2013-06-29 20:26:00,
2013-06-29 16:31:00,71.7,64.5,29.59,ESE,113,4.0,5.0,78,0.00,,,0.01,Wunderground v.1.15,2013-06-29 20:31:00,
2013-06-29 16:41:00,71.7,65.2,29.59,East,92,3.0,5.0,80,0.00,,,0.01,Wunderground v.1.15,2013-06-29 20:41:00,
2013-06-29 16:51:00,71.7,64.8,29.59,ENE,67,4.0,5.0,79,0.00,,,0.01,Wunderground v.1.15,2013-06-29 20:51:00,
2013-06-29 16:56:00,71.7,65.2,29.59,SE,136,4.0,4.0,80,0.00,,,0.01,Wunderground v.1.15,2013-06-29 20:56:00,
2013-06-29 17:06:00,72.0,65.5,29.59,SE,128,3.0,3.0,80,0.00,,,0.01,Wunderground v.1.15,2013-06-29 21:06:00,
2013-06-29 17:16:00,72.1,65.2,29.59,ENE,57,4.0,4.0,79,0.00,,,0.01,Wunderground v.1.15,2013-06-29 21:16:00,
2013-06-29 17:26:00,72.1,65.2,29.59,ENE,72,5.0,5.0,79,0.00,,,0.01,Wunderground v.1.15,2013-06-29 21:26:00,
2013-06-29 17:36:00,72.1,65.6,29.58,East,82,5.0,7.0,80,0.00,,,0.01,Wunderground v.1.15,2013-06-29 21:36:00,
2013-06-29 17:46:00,72.1,65.6,29.59,ENE,69,5.0,8.0,80,0.00,,,0.01,Wunderground v.1.15,2013-06-29 21:46:00,
2013-06-29 17:56:00,72.0,65.8,29.59,East,96,5.0,5.0,81,0.00,,,0.01,Wunderground v.1.15,2013-06-29 21:56:00,
2013-06-29 18:06:00,71.9,65.0,29.59,East,89,5.0,6.0,79,0.00,,,0.01,Wunderground v.1.15,2013-06-29 22:06:00,
2013-06-29 18:16:00,71.9,65.4,29.60,ESE,109,5.0,5.0,80,0.00,,,0.01,Wunderground v.1.15,2013-06-29 22:16:00,
2013-06-29 18:21:00,71.7,65.2,29.60,East,94,5.0,6.0,80,0.00,,,0.01,Wunderground v.1.15,2013-06-29 22:21:00,
2013-06-29 18:31:00,71.2,64.0,29.60,East,84,6.0,6.0,78,0.00,,,0.01,Wunderground v.1.15,2013-06-29 22:31:00,
2013-06-29 18:36:00,71.2,64.4,29.60,ESE,103,3.0,3.0,79,0.00,,,0.01,Wunderground v.1.15,2013-06-29 22:36:00,
2013-06-29 18:46:00,71.3,64.8,29.60,ENE,78,4.0,4.0,80,0.00,,,0.01,Wunderground v.1.15,2013-06-29 22:46:00,
2013-06-29 18:56:00,71.2,65.1,29.61,East,81,5.0,5.0,81,0.00,,,0.01,Wunderground v.1.15,2013-06-29 22:56:00,
2013-06-29 19:06:00,71.0,64.2,29.61,East,87,3.0,5.0,79,0.00,,,0.01,Wunderground v.1.15,2013-06-29 23:06:00,
2013-06-29 19:11:00,71.0,64.2,29.61,East,80,5.0,5.0,79,0.00,,,0.01,Wunderground v.1.15,2013-06-29 23:11:00,
2013-06-29 19:21:00,71.0,64.5,29.61,ENE,72,6.0,7.0,80,0.00,,,0.01,Wunderground v.1.15,2013-06-29 23:21:00,
2013-06-29 19:26:00,70.9,64.4,29.61,ENE,59,5.0,7.0,80,0.00,,,0.01,Wunderground v.1.15,2013-06-29 23:26:00,
2013-06-29 19:36:00,70.9,64.4,29.61,East,92,5.0,5.0,80,0.00,,,0.01,Wunderground v.1.15,2013-06-29 23:36:00,
2013-06-29 19:46:00,70.8,64.0,29.61,ENE,62,5.0,11.0,79,0.00,,,0.01,Wunderground v.1.15,2013-06-29 23:46:00,
2013-06-29 19:51:00,70.8,62.9,29.62,ENE,59,7.0,11.0,76,0.00,,,0.01,Wunderground v.1.15,2013-06-29 23:51:00,
2013-06-29 19:56:00,70.8,62.9,29.62,ENE,76,9.0,9.0,76,0.00,,,0.01,Wunderground v.1.15,2013-06-29 23:56:00,
2013-06-29 20:06:00,70.6,62.3,29.62,NE,42,10.0,10.0,75,0.00,,,0.01,Wunderground v.1.15,2013-06-30 00:06:00,
2013-06-29 20:11:00,70.6,62.3,29.62,ENE,58,10.0,13.0,75,0.00,,,0.01,Wunderground v.1.15,2013-06-30 00:11:00,
2013-06-29 20:21:00,70.4,62.1,29.63,ENE,57,10.0,10.0,75,0.00,,,0.01,Wunderground v.1.15,2013-06-30 00:21:00,
2013-06-29 20:26:00,70.2,62.3,29.63,ENE,57,9.0,10.0,76,0.00,,,0.01,Wunderground v.1.15,2013-06-30 00:26:00,
2013-06-29 20:36:00,70.0,62.5,29.64,ENE,62,8.0,8.0,77,0.00,,,0.01,Wunderground v.1.15,2013-06-30 00:36:00,
2013-06-29 20:41:00,69.8,62.3,29.64,NE,51,8.0,8.0,77,0.00,,,0.01,Wunderground v.1.15,2013-06-30 00:41:00,
2013-06-29 20:51:00,69.6,61.7,29.64,NE,50,8.0,8.0,76,0.00,,,0.01,Wunderground v.1.15,2013-06-30 00:51:00,
2013-06-29 20:56:00,69.6,61.7,29.64,ENE,63,7.0,7.0,76,0.00,,,0.01,Wunderground v.1.15,2013-06-30 00:56:00,
2013-06-29 21:06:00,69.7,61.8,29.65,ENE,57,7.0,11.0,76,0.00,,,0.01,Wunderground v.1.15,2013-06-30 01:06:00,
2013-06-29 21:16:00,69.8,60.8,29.65,ENE,63,10.0,14.0,73,0.00,,,0.01,Wunderground v.1.15,2013-06-30 01:16:00,
2013-06-29 21:21:00,69.9,60.8,29.65,ENE,61,11.0,14.0,73,0.00,,,0.01,Wunderground v.1.15,2013-06-30 01:21:00,
2013-06-29 21:31:00,69.8,60.8,29.66,ENE,59,9.0,13.0,73,0.00,,,0.01,Wunderground v.1.15,2013-06-30 01:31:00,
2013-06-29 21:36:00,69.7,60.7,29.66,ENE,57,9.0,13.0,73,0.00,,,0.01,Wunderground v.1.15,2013-06-30 01:36:00,
2013-06-29 21:46:00,69.7,60.3,29.66,East,82,11.0,13.0,72,0.00,,,0.01,Wunderground v.1.15,2013-06-30 01:46:00,
2013-06-29 21:51:00,69.5,60.5,29.66,ENE,67,10.0,13.0,73,0.00,,,0.01,Wunderground v.1.15,2013-06-30 01:51:00,
2013-06-29 21:56:00,69.4,60.0,29.66,NE,54,8.0,9.0,72,0.00,,,0.01,Wunderground v.1.15,2013-06-30 01:56:00,
2013-06-29 22:06:00,69.2,60.2,29.67,ENE,59,10.0,10.0,73,0.00,,,0.01,Wunderground v.1.15,2013-06-30 02:06:00,
2013-06-29 22:16:00,69.0,60.4,29.67,ENE,67,9.0,11.0,74,0.00,,,0.01,Wunderground v.1.15,2013-06-30 02:16:00,
2013-06-29 22:26:00,69.0,60.4,29.68,ENE,62,10.0,10.0,74,0.00,,,0.01,Wunderground v.1.15,2013-06-30 02:26:00,
2013-06-29 22:31:00,68.9,59.1,29.68,ENE,61,9.0,11.0,71,0.00,,,0.01,Wunderground v.1.15,2013-06-30 02:31:00,
2013-06-29 22:41:00,68.7,59.3,29.68,NE,51,8.0,10.0,72,0.00,,,0.01,Wunderground v.1.15,2013-06-30 02:41:00,
2013-06-29 22:51:00,68.4,57.4,29.68,ENE,63,8.0,11.0,68,0.00,,,0.01,Wunderground v.1.15,2013-06-30 02:51:00,
2013-06-29 22:56:00,68.4,57.4,29.68,NE,51,10.0,10.0,68,0.00,,,0.01,Wunderground v.1.15,2013-06-30 02:56:00,
2013-06-29 23:06:00,68.0,57.8,29.68,NE,51,6.0,8.0,70,0.00,,,0.01,Wunderground v.1.15,2013-06-30 03:06:00,
2013-06-29 23:16:00,67.9,57.4,29.68,NNE,22,8.0,9.0,69,0.00,,,0.01,Wunderground v.1.15,2013-06-30 03:16:00,
2013-06-29 23:26:00,67.6,58.2,29.68,NNE,30,6.0,6.0,72,0.00,,,0.01,Wunderground v.1.15,2013-06-30 03:26:00,
2013-06-29 23:36:00,66.8,57.9,29.68,NNE,30,5.0,5.0,73,0.00,,,0.01,Wunderground v.1.15,2013-06-30 03:36:00,
2013-06-29 23:41:00,66.5,57.6,29.68,NE,36,5.0,5.0,73,0.00,,,0.01,Wunderground v.1.15,2013-06-30 03:41:00,
2013-06-29 23:51:00,65.8,58.0,29.68,NNE,24,4.0,5.0,76,0.00,,,0.01,Wunderground v.1.15,2013-06-30 03:51:00,
2013-06-29 23:56:00,65.4,58.4,29.68,NNE,23,4.0,4.0,78,0.00,,,0.01,Wunderground v.1.15,2013-06-30 03:56:00,